Location: Presov
(49.0000°N, 21.2500°E)
Time: 08:06:04
(UTC+02:00)

ISS - Pass Details

Date: 27 March 2019
Orbit: 408 x 410 km, 51.6° (Epoch: 25 April)

Event Time Altitude Azimuth Distance (km) Brightness Sun altitude
Rises 18:33:02 0° 248° (WSW) 2,331 1.1 -6.5°
Reaches altitude 10° 18:35:06 10° 248° (WSW) 1,471 0.0 -6.9°
Maximum altitude 18:38:25 89° 153° (SSE) 414 -3.8 -7.4°
Drops below altitude 10° 18:41:43 10° 70° (ENE) 1,475 -1.5 -7.9°
Enters shadow 18:42:12 - 70° (ENE) 1,673 -1.2 -8.0°
